[[{"header":{"parameterUnit":"m.s-1","parameterCategory":2,"la1":30.2991,"la2":30.254,"lo1":-89.0895,"lo2":-89.0444,"dy":0.0017,"dx":0.0017,"nx":28,"ny":28,"refTime":"2024-11-24T09:00:00:Z","depth":"0","parameterNumber":2,"parameterNumberName":"U-component_of_CURRENTS"},"data":[0,0,0,0,0,0,0,0,0,0,0,0,0,0,0,0,0,0,0,0,0,0,0,0,0,0,0,0,0,0,0,0,0,0,0,0,0,0,0,0,0,0,0,0,0,0,0,0,0,0,0,0,0,0,0,0,0,0,0.2489,0.249,0,0.2593,0.2594,0.2595,0.2588,0.2587,0.2585,0.2584,0.2521,0.2521,0.252,0,0,0,0,0,0,0,0,0,0,0,0,0,0.24,0.2401,0.2488,0.249,0.2491,0.2592,0.2594,0.2595,0.2588,0.2587,0.2585,0.2583,0.2521,0.2521,0.252,0,0,0,0,0,0,0,0,0,0,0,0,0,0.2463,0.2401,0.2488,0.2501,0.2503,0.2592,0.2594,0.2595,0.2589,0.2587,0.2584,0.2582,0.2521,0.2521,0.252,0.256,0,0,0.2519,0.2518,0,0,0,0,0,0,0,0,0.2459,0.2466,0.2498,0.25,0.2503,0.2576,0.254,0.2576,0.2589,0.2555,0.2584,0.2581,0.2526,0.2525,0.255,0.2557,0.2555,0.2519,0.2518,0.2518,0.2518,0,0,0,0,0,0,0,0.2455,0.2463,0.2529,0.2499,0.2503,0.2541,0.2547,0.2548,0.2547,0.2558,0.2558,0.2572,0.2526,0.2551,0.2548,0.2554,0.2519,0.2518,0.2518,0.2518,0.2627,0.263,0,0,0,0,0,0,0.2441,0.2458,0.2525,0.2532,0.2477,0.2544,0.255,0.2554,0.2551,0.255,0.2574,0.2571,0.2553,0.2549,0.2546,0.2597,0.2518,0.2518,0.2517,0.2624,0.2628,0.2631,0,0,0,0,0,0,0.2438,0.2445,0.2521,0.2499,0.2511,0.2547,0.2552,0.2557,0.2581,0.2565,0.256,0.2592,0.2551,0.2547,0.2589,0.2593,0.2517,0.2517,0.262,0.2625,0.263,0.2695,0,0,0,0,0,0,0.2435,0.2444,0.244,0.2497,0.2512,0.2575,0.2554,0.2561,0.2593,0.2591,0.2579,0.2572,0.2549,0.259,0.2588,0.2591,0.2517,0.2616,0.2622,0.2628,0.2689,0.2701,0.2712,0,0,0,0,0,0.2431,0.2443,0.2439,0.2448,0.2506,0.2577,0.2588,0.2606,0.2596,0.2618,0.2637,0.2572,0.2625,0.2594,0.259,0.2593,0.2613,0.2621,0.2628,0.2683,0.2699,0.2712,0,0,0,0,0,0,0.2427,0.2445,0.2442,0.2463,0.2513,0.2575,0.2602,0.2616,0.2652,0.2646,0.2625,0.2622,0.2658,0.2638,0.2603,0.265,0.2604,0.2611,0.2647,0.2661,0.2673,0.2665,0.2516,0,0,0,0,0,0.2419,0.2412,0.2463,0.2482,0.2509,0.2557,0.2586,0.2603,0.2645,0.2658,0.266,0.2668,0.269,0.2685,0.2701,0.2729,0.2733,0.273,0.2742,0.2751,0.2749,0.2794,0.2808,0.2655,0.2655,0.2655,0,0,0.243,0.2433,0.2435,0.2477,0.2518,0.2574,0.2569,0.2623,0.2662,0.2644,0.2698,0.2712,0.2715,0.2755,0.2765,0.273,0.2807,0.2761,0.2768,0.276,0.2803,0.2817,0.283,0.266,0.2659,0.2658,0,0,0.2455,0.245,0.2461,0.2502,0.2554,0.2588,0.2605,0.2674,0.2692,0.2762,0.2759,0.2797,0.2822,0.2832,0.2837,0.2929,0.2878,0.2917,0.2949,0.2994,0.3006,0.3016,0.3067,0.3082,0.2908,0.2908,0.2909,0,0.2478,0.248,0.2486,0.2524,0.2558,0.2596,0.2647,0.2691,0.2764,0.2777,0.2782,0.2859,0.2862,0.2903,0.2943,0.2948,0.2967,0.2886,0.3005,0.3016,0.3025,0.3075,0.309,0.2912,0.2912,0.2912,0.2911,0,0.2512,0.2529,0.2553,0.2591,0.2632,0.2686,0.2742,0.2778,0.2806,0.2841,0.2899,0.2943,0.2971,0.2987,0.2995,0.3055,0.3048,0.3022,0.2958,0.3044,0.3092,0.3106,0.2918,0.2917,0.2916,0.2915,0,0,0.2554,0.2569,0.2583,0.259,0.2665,0.27,0.2765,0.2822,0.284,0.2918,0.295,0.3032,0.3038,0.3049,0.3057,0.3105,0.3211,0.3093,0.3094,0.3125,0.3319,0.3291,0.3304,0.3198,0.3201,0.3203,0.3335,0,0.2594,0.2624,0.2638,0.2698,0.2724,0.2765,0.2812,0.2859,0.2899,0.2942,0.2992,0.3036,0.3063,0.3073,0.3134,0.3184,0.3248,0.3178,0.3248,0.3251,0.3198,0.3319,0.3222,0.3329,0.3348,0.3351,0.3352,0,0.2634,0.2634,0.2664,0.2694,0.2715,0.2756,0.2793,0.2847,0.2909,0.2935,0.2991,0.3026,0.3117,0.3122,0.3268,0.3219,0.3284,0.333,0.3335,0.3288,0.3249,0.3244,0.3353,0.3204,0.3374,0.3372,0.3371,0,0.26,0.2666,0.2658,0.2678,0.2723,0.2736,0.2777,0.2832,0.2857,0.2925,0.2947,0.3048,0.3096,0.3202,0.3318,0.3295,0.3474,0.3442,0.3485,0.3483,0.3404,0.3391,0.3354,0.3555,0.3555,0.3555,0.3554,0,0.2608,0.2621,0.2634,0.2625,0.2642,0.2694,0.2715,0.2763,0.2817,0.2849,0.2934,0.2979,0.312,0.3231,0.3333,0.3466,0.3492,0.352,0.3524,0.3429,0.3417,0.3283,0.32,0.356,0.3559,0.3558,0.3557,0,0.2555,0.257,0.2568,0.2594,0.261,0.2617,0.2679,0.2697,0.2754,0.2797,0.2821,0.2946,0.3096,0.324,0.3415,0.3474,0.3501,0.3636,0.3523,0.351,0.3383,0.3308,0.3223,0.3153,0.3703,0.3704,0.3704,0,0.2521,0.2499,0.2512,0.2523,0.2533,0.2559,0.2582,0.2651,0.2674,0.2779,0.2799,0.2947,0.3055,0.3306,0.3447,0.3626,0.3504,0.361,0.3548,0.3385,0.3305,0.3179,0.3117,0.3488,0.3487,0.3485,0.3484,0,0.245,0.2442,0.2429,0.2452,0.2475,0.2492,0.2534,0.2539,0.2623,0.2665,0.276,0.2856,0.3094,0.3229,0.3441,0.3541,0.3407,0.3587,0.3446,0.3165,0.2998,0.2928,0.3394,0.3473,0.3474,0.3475,0.3475,0.3476,0.2407,0.2385,0.2379,0.2406,0.2423,0.2435,0.2431,0.2478,0.251,0.2571,0.2696,0.2794,0.2985,0.3275,0.3358,0.3352,0.3344,0.328,0.322,0.3121,0.2985,0.3432,0.3485,0.3486,0.3487,0.3488,0.3489,0,0.2381,0.2366,0.236,0.2378,0.2368,0.2397,0.2406,0.2389,0.2407,0.2493,0.2576,0.2682,0.2823,0.296,0.3046,0.298,0.2914,0.2894,0.2676,0.2651,0.3081,0.2999,0.2912,0.2912,0.2912,0.2913,0.2913,0.2913,0.238,0.2361,0.2347,0.233,0.2328,0.2285,0.2273,0.2253,0.2281,0.228,0.2294,0.2377,0.2494,0.2593,0.2555,0.2557,0.2366,0.2306,0.2282,0.2541,0.2571,0.2599,0.2501,0.2312,0.2311,0.1794,0.1789,0.1786]},{"header":{"parameterUnit":"m.s-1","parameterCategory":2,"la1":30.2991,"la2":30.254,"lo1":-89.0895,"lo2":-89.0444,"dy":0.0017,"dx":0.0017,"nx":28,"ny":28,"refTime":"2024-11-24T09:00:00:Z","depth":"0","parameterNumber":3,"parameterNumberName":"V-component_of_CURRENTS"},"data":[0,0,0,0,0,0,0,0,0,0,0,0,0,0,0,0,0,0,0,0,0,0,0,0,0,0,0,0,0,0,0,0,0,0,0,0,0,0,0,0,0,0,0,0,0,0,0,0,0,0,0,0,0,0,0,0,0,0,-0.0333,-0.0333,0,-0.0325,-0.0325,-0.0324,-0.0345,-0.0346,-0.0347,-0.0347,-0.0393,-0.0393,-0.0394,0,0,0,0,0,0,0,0,0,0,0,0,0,-0.032,-0.0321,-0.0333,-0.0333,-0.0333,-0.0325,-0.0325,-0.0324,-0.0345,-0.0346,-0.0347,-0.0348,-0.0393,-0.0393,-0.0394,0,0,0,0,0,0,0,0,0,0,0,0,0,-0.0319,-0.0321,-0.0333,-0.0343,-0.0344,-0.0325,-0.0325,-0.0324,-0.0345,-0.0346,-0.0347,-0.0348,-0.0392,-0.0393,-0.0394,-0.0374,0,0,-0.0396,-0.0396,0,0,0,0,0,0,0,0,-0.0319,-0.0319,-0.0342,-0.0343,-0.0344,-0.0339,-0.0337,-0.0344,-0.0344,-0.0343,-0.0347,-0.0349,-0.038,-0.0382,-0.0374,-0.0376,-0.0378,-0.0396,-0.0396,-0.0397,-0.0397,0,0,0,0,0,0,0,-0.0319,-0.0319,-0.0328,-0.0342,-0.0343,-0.0333,-0.0334,-0.0338,-0.0354,-0.0343,-0.0345,-0.0346,-0.0381,-0.0373,-0.0376,-0.0379,-0.0396,-0.0397,-0.0397,-0.0397,-0.038,-0.0379,0,0,0,0,0,0,-0.0325,-0.032,-0.0328,-0.0328,-0.0336,-0.0333,-0.0334,-0.0338,-0.0353,-0.0357,-0.0345,-0.0347,-0.0372,-0.0375,-0.0378,-0.0347,-0.0397,-0.0397,-0.0398,-0.0381,-0.038,-0.0379,0,0,0,0,0,0,-0.0324,-0.0325,-0.0329,-0.0325,-0.0325,-0.0332,-0.0336,-0.0337,-0.0335,-0.0355,-0.0359,-0.0343,-0.0373,-0.0377,-0.0372,-0.035,-0.0398,-0.0398,-0.0382,-0.0381,-0.0379,-0.0292,0,0,0,0,0,0,-0.0324,-0.0325,-0.0324,-0.0325,-0.0325,-0.0306,-0.0335,-0.0336,-0.0335,-0.0337,-0.0354,-0.0359,-0.0374,-0.037,-0.0372,-0.0352,-0.0399,-0.0383,-0.0381,-0.038,-0.0296,-0.0288,-0.0281,0,0,0,0,0,-0.0324,-0.0317,-0.0324,-0.0325,-0.0325,-0.0305,-0.0303,-0.0312,-0.0334,-0.0318,-0.0332,-0.0359,-0.0362,-0.037,-0.0372,-0.0351,-0.0384,-0.0382,-0.038,-0.03,-0.029,-0.0282,0,0,0,0,0,0,-0.0309,-0.0319,-0.0326,-0.0323,-0.0311,-0.031,-0.0298,-0.0309,-0.0307,-0.0316,-0.0341,-0.0346,-0.0335,-0.0356,-0.0364,-0.0344,-0.038,-0.0378,-0.0318,-0.0309,-0.0302,-0.0302,-0.0399,0,0,0,0,0,-0.0305,-0.0308,-0.0305,-0.0302,-0.0292,-0.0295,-0.029,-0.0295,-0.0297,-0.0298,-0.0309,-0.0324,-0.0326,-0.0328,-0.0334,-0.0318,-0.0332,-0.031,-0.0302,-0.0296,-0.0298,-0.0291,-0.0282,-0.0372,-0.0372,-0.0373,0,0,-0.0304,-0.0306,-0.031,-0.0299,-0.0291,-0.027,-0.0294,-0.0281,-0.0268,-0.0303,-0.0287,-0.0297,-0.0317,-0.0297,-0.0295,-0.0312,-0.0274,-0.0293,-0.0287,-0.0294,-0.0288,-0.0279,-0.0271,-0.0371,-0.0371,-0.0372,0,0,-0.0291,-0.0295,-0.0287,-0.0271,-0.0257,-0.0252,-0.0248,-0.024,-0.0237,-0.0219,-0.0244,-0.0237,-0.0242,-0.0242,-0.0247,-0.0203,-0.0236,-0.0213,-0.0171,-0.0163,-0.0155,-0.0149,-0.0138,-0.0132,-0.0208,-0.0207,-0.0207,0,-0.0282,-0.0279,-0.0278,-0.0255,-0.0244,-0.0244,-0.0223,-0.0209,-0.0202,-0.0197,-0.0207,-0.02,-0.0213,-0.0192,-0.0176,-0.0184,-0.019,-0.02,-0.0151,-0.0145,-0.014,-0.0132,-0.0126,-0.0203,-0.0203,-0.0204,-0.0204,0,-0.0267,-0.0253,-0.024,-0.0218,-0.0199,-0.0179,-0.0162,-0.0144,-0.0145,-0.0139,-0.0115,-0.0116,-0.0118,-0.0113,-0.0131,-0.01,-0.0118,-0.0141,-0.0171,-0.0126,-0.012,-0.0115,-0.0197,-0.0198,-0.02,-0.0201,0,0,-0.0275,-0.0237,-0.0233,-0.0214,-0.0181,-0.0164,-0.0132,-0.0104,-0.0087,-0.0066,-0.004,-0.0028,-0.0035,-0.0042,-0.0053,-0.004,0.0002,-0.0073,-0.0075,-0.0057,0.0022,0.0017,0.0021,-0.0013,-0.0012,-0.0012,0.0018,0,-0.026,-0.022,-0.0208,-0.0165,-0.0138,-0.0121,-0.009,-0.0066,-0.0045,-0.0012,-0.0002,0.0019,-0.0005,0.0001,0.0013,0.0005,0.0015,-0.0004,-0.0031,-0.0032,-0.0037,0.0027,0.0041,0.0069,0.0023,0.0023,0.0024,0,-0.0252,-0.0225,-0.0185,-0.0137,-0.0125,-0.01,-0.0058,-0.003,0.0015,0.0032,0.0059,0.0064,0.0097,0.0065,0.0083,0.007,0.0047,0.004,0.004,0.0004,-0.0028,0.0012,0.0079,-0.0012,0.0031,0.003,0.003,0,-0.0264,-0.021,-0.0181,-0.0163,-0.0108,-0.009,-0.0065,-0.0021,0.0015,0.006,0.0096,0.012,0.0148,0.0133,0.0126,0.0101,0.0145,0.0105,0.0079,0.0078,0.0068,0.0065,0.0047,0.0104,0.0103,0.0103,0.0103,0,-0.0255,-0.0228,-0.0183,-0.0165,-0.0124,-0.0092,-0.0044,-0.0016,0.0043,0.0105,0.0115,0.0179,0.0165,0.0191,0.0157,0.0153,0.0169,0.01,0.0091,0.01,0.0099,-0.0002,-0.0071,0.0104,0.0104,0.0104,0.0104,0,-0.0258,-0.0234,-0.0194,-0.0144,-0.0126,-0.0099,-0.0025,0.0021,0.0063,0.015,0.0171,0.0234,0.028,0.0265,0.026,0.0203,0.0149,0.017,0.0186,0.0178,0.0049,-0.0016,-0.0037,-0.0054,0.0145,0.0145,0.0146,0,-0.025,-0.0231,-0.0183,-0.0152,-0.0126,-0.0076,-0.0027,0.0024,0.0088,0.02,0.0255,0.0318,0.0406,0.0403,0.0323,0.0275,0.0182,0.0208,0.0154,0.0059,-0.0019,-0.0049,-0.0063,0.0183,0.0183,0.0184,0.0184,0,-0.0227,-0.0218,-0.0185,-0.0126,-0.0079,-0.0015,0.0059,0.0113,0.0198,0.0289,0.0426,0.0504,0.0507,0.0507,0.0411,0.0341,0.0151,0.0211,0.0114,0.0014,-0.0021,-0.0046,0.0141,0.0187,0.0187,0.0187,0.0186,0.0186,-0.0209,-0.018,-0.0135,-0.008,-0.0024,0.0065,0.014,0.0241,0.0365,0.0554,0.0577,0.0759,0.0664,0.0562,0.043,0.0178,0.0174,0.0094,0.0028,0.0011,-0.0019,0.0174,0.0203,0.0203,0.0203,0.0202,0.0202,0,-0.0167,-0.0128,-0.0077,-0.0,0.0074,0.0094,0.0224,0.0337,0.0516,0.0705,0.0856,0.0948,0.0801,0.0601,0.0253,0.0046,-0.0025,-0.0076,-0.0124,-0.0126,0.0052,0.0037,0.0029,0.003,0.003,0.003,0.003,0.003,-0.0139,-0.0077,-0.0048,0.0082,0.0142,0.0279,0.0365,0.0541,0.0712,0.1004,0.1171,0.126,0.1092,0.0406,-0.0043,-0.0154,-0.0284,-0.0316,-0.0373,-0.0285,-0.0274,-0.0264,-0.0294,-0.037,-0.0371,-0.0498,-0.05,-0.0501]}],[{"header":{"parameterUnit":"m.s-1","parameterCategory":2,"la1":30.2991,"la2":30.254,"lo1":-89.0895,"lo2":-89.0444,"dy":0.0017,"dx":0.0017,"nx":28,"ny":28,"refTime":"2024-11-24T09:00:00:Z","depth":"2","parameterNumber":2,"parameterNumberName":"U-component_of_CURRENTS"},"data":[0,0,0,0,0,0,0,0,0,0,0,0,0,0,0,0,0,0,0,0,0,0,0,0,0,0,0,0,0,0,0,0,0,0,0,0,0,0,0,0,0,0,0,0,0,0,0,0,0,0,0,0,0,0,0,0,0,0,0.0031,0.0032,0,0.0169,0.0171,0.0173,0.0315,0.0316,0.0318,0.0319,0.0497,0.05,0.0503,0,0,0,0,0,0,0,0,0,0,0,0,0,0.0074,0.0072,0.0031,0.0032,0.0034,0.0169,0.0171,0.0173,0.0314,0.0316,0.0318,0.032,0.0496,0.05,0.0504,0,0,0,0,0,0,0,0,0,0,0,0,0,0.0121,0.0071,0.0031,0.0117,0.0126,0.0168,0.0171,0.0174,0.0314,0.0316,0.0319,0.0321,0.0495,0.0499,0.0504,0.0487,0,0,0.0519,0.0521,0,0,0,0,0,0,0,0,0.0118,0.012,0.0103,0.0111,0.0121,0.0223,0.0251,0.0279,0.0313,0.0247,0.0319,0.0322,0.0405,0.0417,0.0443,0.0495,0.0503,0.052,0.0523,0.0525,0.0526,0,0,0,0,0,0,0,0.0114,0.0116,0.009,0.0104,0.0115,0.0213,0.022,0.0258,0.0315,0.0253,0.0262,0.0271,0.0411,0.0438,0.0448,0.0506,0.052,0.0524,0.0527,0.0529,0.0759,0.0762,0,0,0,0,0,0,0.0076,0.0111,0.0085,0.0093,0.0121,0.0209,0.0218,0.0191,0.0314,0.0333,0.0268,0.0277,0.0428,0.0442,0.0455,0.0548,0.0525,0.0529,0.0532,0.0756,0.076,0.0763,0,0,0,0,0,0,0.0076,0.0071,0.0079,0.0105,0.0113,0.0203,0.0174,0.0193,0.0257,0.0324,0.0346,0.0317,0.0431,0.0448,0.048,0.0552,0.0531,0.0536,0.0752,0.0757,0.0761,0.0666,0,0,0,0,0,0,0.0076,0.0069,0.0117,0.01,0.0109,0.013,0.0172,0.0194,0.0254,0.0267,0.0371,0.0389,0.0434,0.0471,0.0484,0.0559,0.054,0.0748,0.0754,0.076,0.0665,0.0667,0.0668,0,0,0,0,0,0.0077,0.0119,0.0116,0.0118,0.0142,0.013,0.0146,0.0223,0.0254,0.0288,0.0322,0.0388,0.0524,0.0473,0.0489,0.0567,0.0745,0.0752,0.0759,0.0664,0.0667,0.0668,0,0,0,0,0,0,0.0136,0.0135,0.0134,0.0166,0.0155,0.0154,0.0212,0.023,0.0287,0.0313,0.0364,0.0382,0.0439,0.052,0.0464,0.0664,0.0673,0.0683,0.0596,0.0599,0.06,0.0624,0.0544,0,0,0,0,0,0.0165,0.0236,0.0173,0.0217,0.0187,0.0194,0.0226,0.0251,0.0264,0.0297,0.0357,0.0439,0.0477,0.0543,0.0588,0.0674,0.0734,0.0763,0.0764,0.0765,0.0803,0.0876,0.0886,0.0786,0.0786,0.0786,0,0,0.0176,0.0221,0.0239,0.0246,0.0235,0.021,0.0221,0.0248,0.0274,0.0302,0.0384,0.0409,0.0486,0.0563,0.0613,0.0649,0.0828,0.0774,0.0772,0.0812,0.0884,0.0893,0.0901,0.0791,0.079,0.079,0,0,0.0241,0.0261,0.0312,0.0289,0.03,0.0292,0.0289,0.0277,0.0323,0.0363,0.0384,0.0431,0.0549,0.0597,0.0637,0.0686,0.0789,0.0762,0.0834,0.0902,0.0909,0.0916,0.0995,0.101,0.0815,0.0815,0.0815,0,0.0269,0.0301,0.0322,0.033,0.0322,0.0308,0.0282,0.0311,0.0342,0.0381,0.0401,0.053,0.0565,0.0641,0.0671,0.0686,0.0759,0.0794,0.0896,0.0905,0.0914,0.0994,0.1011,0.0811,0.0811,0.0812,0.0812,0,0.0301,0.0336,0.034,0.0355,0.036,0.0339,0.0311,0.0361,0.0411,0.0446,0.0531,0.0559,0.0663,0.0689,0.0693,0.0805,0.0844,0.083,0.0867,0.0917,0.1,0.1019,0.0806,0.0807,0.0808,0.0809,0,0,0.0292,0.0355,0.0345,0.0368,0.0359,0.0352,0.0389,0.041,0.0469,0.0537,0.0625,0.0673,0.0721,0.0772,0.0796,0.0876,0.0959,0.0914,0.0919,0.0953,0.1149,0.1118,0.1137,0.097,0.0973,0.0976,0.1174,0,0.029,0.0344,0.0363,0.0377,0.0371,0.0369,0.0411,0.0461,0.0527,0.0619,0.0676,0.0758,0.0746,0.0809,0.0873,0.0926,0.1015,0.091,0.1136,0.1143,0.1074,0.1159,0.097,0.1127,0.1194,0.1198,0.12,0,0.0311,0.0347,0.038,0.0433,0.0411,0.0432,0.0506,0.0538,0.0644,0.0707,0.0804,0.0853,0.0962,0.0942,0.1101,0.1048,0.1117,0.1158,0.1166,0.1194,0.115,0.1099,0.1162,0.1234,0.1231,0.1229,0.1227,0,0.0383,0.0372,0.0438,0.0426,0.0458,0.0496,0.0508,0.0594,0.0644,0.0782,0.0866,0.0974,0.1073,0.1157,0.1243,0.1203,0.1419,0.1361,0.14,0.1399,0.1315,0.13,0.1493,0.1493,0.1493,0.1492,0.1492,0,0.0427,0.0426,0.0476,0.0501,0.0526,0.0548,0.0619,0.0657,0.0755,0.0849,0.0927,0.1043,0.1141,0.1262,0.1309,0.1434,0.1479,0.1449,0.146,0.1279,0.1259,0.1413,0.1401,0.15,0.1498,0.1497,0.1495,0,0.0497,0.0509,0.0563,0.0599,0.0601,0.0618,0.0635,0.0697,0.0794,0.0928,0.0987,0.1144,0.133,0.141,0.157,0.1537,0.1631,0.1661,0.1448,0.1429,0.1552,0.1534,0.1739,0.174,0.174,0.1741,0.1742,0,0.0543,0.0645,0.068,0.0654,0.0651,0.0663,0.0696,0.0733,0.08,0.0994,0.1078,0.1295,0.1444,0.1645,0.1584,0.1659,0.1759,0.1592,0.1459,0.1594,0.1584,0.1564,0.1546,0.1317,0.1313,0.1311,0.1309,0,0.0652,0.0714,0.0717,0.0718,0.071,0.0714,0.0756,0.0801,0.0904,0.1028,0.1234,0.1365,0.1499,0.1499,0.1564,0.1565,0.1548,0.1545,0.1777,0.1268,0.1208,0.1193,0.1187,0.1287,0.1289,0.1291,0.1292,0.1293,0.0677,0.0702,0.0766,0.0748,0.0738,0.0784,0.0806,0.0874,0.0982,0.116,0.1293,0.1442,0.1373,0.1377,0.1368,0.1347,0.1412,0.1404,0.1407,0.1414,0.1314,0.1256,0.1328,0.133,0.1332,0.1334,0.1336,0,0.075,0.0759,0.0777,0.072,0.0766,0.0789,0.0869,0.0911,0.1039,0.1163,0.1331,0.1206,0.1217,0.1248,0.1094,0.1049,0.0963,0.1133,0.1021,0.1042,0.106,0.0938,0.0856,0.0855,0.0855,0.0855,0,0,0.0732,0.0721,0.0775,0.0791,0.0812,0.0884,0.0952,0.1005,0.1065,0.1115,0.1156,0.1238,0.1192,0.1006,0.0937,0.0929,0.0998,0.0902,0.127,0.1159,0.1178,0.1183,0.1015,0,0,0,0,0]},{"header":{"parameterUnit":"m.s-1","parameterCategory":2,"la1":30.2991,"la2":30.254,"lo1":-89.0895,"lo2":-89.0444,"dy":0.0017,"dx":0.0017,"nx":28,"ny":28,"refTime":"2024-11-24T09:00:00:Z","depth":"2","parameterNumber":3,"parameterNumberName":"V-component_of_CURRENTS"},"data":[0,0,0,0,0,0,0,0,0,0,0,0,0,0,0,0,0,0,0,0,0,0,0,0,0,0,0,0,0,0,0,0,0,0,0,0,0,0,0,0,0,0,0,0,0,0,0,0,0,0,0,0,0,0,0,0,0,0,-0.0252,-0.0253,0,-0.0343,-0.0344,-0.0345,-0.0438,-0.0439,-0.044,-0.0442,-0.0617,-0.062,-0.0623,0,0,0,0,0,0,0,0,0,0,0,0,0,-0.0251,-0.025,-0.0252,-0.0253,-0.0254,-0.0343,-0.0344,-0.0345,-0.0437,-0.0439,-0.0441,-0.0442,-0.0616,-0.062,-0.0624,0,0,0,0,0,0,0,0,0,0,0,0,0,-0.0286,-0.0249,-0.0251,-0.0312,-0.0319,-0.0342,-0.0344,-0.0345,-0.0437,-0.0439,-0.0441,-0.0443,-0.0614,-0.0619,-0.0624,-0.0613,0,0,-0.0639,-0.0642,0,0,0,0,0,0,0,0,-0.0283,-0.0285,-0.0302,-0.0308,-0.0315,-0.0382,-0.0408,-0.0439,-0.0436,-0.039,-0.0442,-0.0444,-0.0546,-0.0556,-0.0565,-0.0621,-0.0629,-0.064,-0.0643,-0.0645,-0.0647,0,0,0,0,0,0,0,-0.0281,-0.0282,-0.0286,-0.0303,-0.0311,-0.0367,-0.0373,-0.0414,-0.0455,-0.0394,-0.0402,-0.0414,-0.055,-0.056,-0.057,-0.0631,-0.064,-0.0644,-0.0647,-0.0649,-0.0746,-0.0746,0,0,0,0,0,0,-0.0265,-0.0279,-0.0283,-0.0289,-0.0306,-0.0365,-0.0372,-0.0357,-0.0453,-0.047,-0.0412,-0.0418,-0.055,-0.0564,-0.0577,-0.063,-0.0645,-0.065,-0.0653,-0.0746,-0.0746,-0.0745,0,0,0,0,0,0,-0.0264,-0.0263,-0.028,-0.029,-0.0296,-0.0362,-0.0346,-0.0358,-0.0392,-0.0466,-0.0484,-0.0436,-0.0553,-0.057,-0.0639,-0.0636,-0.0652,-0.0657,-0.0747,-0.0746,-0.0746,-0.0699,0,0,0,0,0,0,-0.0263,-0.0261,-0.027,-0.0287,-0.0295,-0.0291,-0.0344,-0.0358,-0.0396,-0.0405,-0.0492,-0.0509,-0.0556,-0.0632,-0.0644,-0.0643,-0.0661,-0.0747,-0.0747,-0.0746,-0.0701,-0.0696,-0.0693,0,0,0,0,0,-0.0262,-0.0249,-0.0268,-0.0271,-0.0294,-0.029,-0.0299,-0.0354,-0.0395,-0.0396,-0.0474,-0.0508,-0.0635,-0.0636,-0.0651,-0.0651,-0.0748,-0.0747,-0.0746,-0.0702,-0.0697,-0.0693,0,0,0,0,0,0,-0.0244,-0.0258,-0.028,-0.027,-0.0282,-0.0307,-0.0318,-0.0356,-0.0415,-0.0438,-0.0514,-0.0536,-0.0594,-0.0624,-0.0623,-0.0673,-0.0691,-0.0693,-0.0653,-0.0649,-0.0645,-0.0587,-0.0665,0,0,0,0,0,-0.0243,-0.025,-0.0255,-0.0255,-0.0248,-0.0286,-0.0304,-0.0334,-0.0378,-0.0407,-0.0472,-0.0538,-0.0593,-0.0625,-0.0675,-0.0704,-0.0706,-0.0709,-0.0705,-0.0701,-0.0662,-0.0689,-0.0684,-0.0742,-0.0742,-0.0742,0,0,-0.0236,-0.0251,-0.0254,-0.0256,-0.0266,-0.0247,-0.03,-0.0311,-0.032,-0.0416,-0.0462,-0.0534,-0.06,-0.0641,-0.0667,-0.0671,-0.0684,-0.07,-0.0697,-0.0659,-0.0688,-0.0682,-0.0677,-0.0741,-0.0742,-0.0742,0,0,-0.0213,-0.0226,-0.0215,-0.0208,-0.0224,-0.0241,-0.0242,-0.0268,-0.0301,-0.0348,-0.0425,-0.0487,-0.057,-0.061,-0.0643,-0.0639,-0.0668,-0.0663,-0.0593,-0.0622,-0.0617,-0.0612,-0.0596,-0.0591,-0.0654,-0.0654,-0.0654,0,-0.0208,-0.0184,-0.0212,-0.0183,-0.0175,-0.0229,-0.0193,-0.0223,-0.0285,-0.0302,-0.0356,-0.047,-0.0543,-0.0576,-0.0585,-0.0628,-0.0637,-0.0612,-0.0615,-0.0611,-0.0607,-0.0593,-0.0587,-0.0652,-0.0652,-0.0652,-0.0653,0,-0.0155,-0.014,-0.0119,-0.0106,-0.0106,-0.008,-0.0105,-0.0129,-0.0189,-0.0225,-0.0284,-0.0383,-0.044,-0.0483,-0.0542,-0.055,-0.0561,-0.0615,-0.0625,-0.0599,-0.0585,-0.058,-0.0649,-0.0649,-0.065,-0.0651,0,0,-0.0109,-0.0088,-0.0081,-0.006,-0.0055,-0.0043,-0.0046,-0.0051,-0.005,-0.0135,-0.0133,-0.0251,-0.0305,-0.0342,-0.0425,-0.0455,-0.0459,-0.0518,-0.0521,-0.0494,-0.0489,-0.0463,-0.0456,-0.0528,-0.0527,-0.0526,-0.0485,0,-0.0051,0.0,-0.0001,0.0053,0.0091,0.0067,0.0076,0.005,0.0005,-0.001,-0.0103,-0.0147,-0.0251,-0.0289,-0.0333,-0.0433,-0.0445,-0.0461,-0.0522,-0.0522,-0.0498,-0.0449,-0.045,-0.041,-0.0481,-0.048,-0.0479,0,0.0001,0.0036,0.0087,0.0136,0.0157,0.0171,0.0184,0.0187,0.0157,0.0127,0.0079,0.0004,-0.0053,-0.0153,-0.0259,-0.027,-0.0357,-0.043,-0.0432,-0.0411,-0.0487,-0.0451,-0.0399,-0.0472,-0.0472,-0.0473,-0.0473,0,0.0015,0.0095,0.0123,0.0147,0.0193,0.0209,0.0227,0.0215,0.0229,0.0212,0.0218,0.014,0.0095,-0.0018,-0.0174,-0.0222,-0.0275,-0.0365,-0.0404,-0.0402,-0.0409,-0.0409,-0.0411,-0.0411,-0.0411,-0.0411,-0.0411,0,0.0068,0.0118,0.013,0.0159,0.0218,0.0239,0.0288,0.0293,0.0318,0.0353,0.0283,0.0297,0.0119,0.0054,-0.0095,-0.0207,-0.0212,-0.035,-0.0384,-0.0391,-0.039,-0.0457,-0.0463,-0.041,-0.041,-0.041,-0.041,0,0.0087,0.0099,0.0146,0.0194,0.0211,0.0246,0.0325,0.0372,0.039,0.0438,0.0438,0.0412,0.0346,0.0197,0.0035,-0.0095,-0.0216,-0.0258,-0.0224,-0.0255,-0.034,-0.0344,-0.0282,-0.0281,-0.028,-0.0279,-0.0278,0,0.0098,0.0094,0.0133,0.0167,0.0196,0.0261,0.0312,0.0374,0.0436,0.0507,0.0544,0.052,0.0525,0.0352,0.0124,-0.0057,-0.0134,-0.0183,-0.0279,-0.0284,-0.0324,-0.033,-0.0336,-0.0268,-0.0267,-0.0267,-0.0266,0,0.011,0.0087,0.0136,0.0182,0.0235,0.0327,0.0414,0.0479,0.0564,0.0637,0.074,0.0763,0.0614,0.0435,0.0193,0.0056,-0.0154,-0.0173,-0.0186,-0.0299,-0.0268,-0.0309,-0.0315,-0.026,-0.0261,-0.0261,-0.0262,-0.0262,0.0117,0.0136,0.0154,0.0219,0.028,0.0396,0.0486,0.0612,0.0744,0.0874,0.0885,0.0909,0.0635,0.0339,0.0148,-0.0053,-0.0079,-0.0205,-0.0209,-0.0214,-0.0218,-0.0186,-0.0161,-0.0161,-0.0161,-0.0161,-0.0161,0,0.0123,0.0158,0.0202,0.03,0.0377,0.0397,0.0557,0.0682,0.0865,0.0945,0.1049,0.0818,0.0625,0.0364,0.0061,-0.0129,-0.0157,-0.0172,-0.0212,-0.0216,-0.0221,-0.0228,-0.0172,-0.0173,-0.0173,-0.0173,0,0,0.0137,0.0212,0.0236,0.0367,0.0417,0.055,0.0644,0.0836,0.0941,0.1065,0.1044,0.0965,0.0621,0.0364,0.0117,-0.0018,-0.0059,-0.0025,-0.0002,-0.0024,-0.0026,-0.0231,-0.0246,0,0,0,0,0]}],[{"header":{"parameterUnit":"m.s-1","parameterCategory":2,"la1":30.2991,"la2":30.254,"lo1":-89.0895,"lo2":-89.0444,"dy":0.0017,"dx":0.0017,"nx":28,"ny":28,"refTime":"2024-11-24T09:00:00:Z","depth":"4","parameterNumber":2,"parameterNumberName":"U-component_of_CURRENTS"},"data":[0,0,0,0,0,0,0,0,0,0,0,0,0,0,0,0,0,0,0,0,0,0,0,0,0,0,0,0,0,0,0,0,0,0,0,0,0,0,0,0,0,0,0,0,0,0,0,0,0,0,0,0,0,0,0,0,0,0,-0.0217,-0.0217,0,-0.0215,-0.0215,-0.0215,-0.0211,-0.0211,-0.0211,-0.0211,-0.0207,-0.0207,-0.0207,0,0,0,0,0,0,0,0,0,0,0,0,0,-0.0255,-0.0254,-0.0217,-0.0217,-0.0217,-0.0215,-0.0215,-0.0215,-0.0211,-0.0211,-0.0211,-0.0211,-0.0207,-0.0207,-0.0207,0,0,0,0,0,0,0,0,0,0,0,0,0,-0.0245,-0.0254,-0.0217,-0.0214,-0.0214,-0.0215,-0.0215,-0.0215,-0.0211,-0.0211,-0.0211,-0.0211,-0.0207,-0.0207,-0.0207,-0.0211,0,0,-0.0208,-0.0208,0,0,0,0,0,0,0,0,-0.0245,-0.0243,-0.0215,-0.0215,-0.0214,-0.0212,-0.0227,-0.0213,-0.0212,-0.0213,-0.0211,-0.0211,-0.0209,-0.0209,-0.021,-0.0211,-0.0211,-0.0208,-0.0208,-0.0208,-0.0208,0,0,0,0,0,0,0,-0.0246,-0.0244,-0.0217,-0.0215,-0.0214,-0.0226,-0.0224,-0.0224,-0.0213,-0.0213,-0.0213,-0.0211,-0.0209,-0.021,-0.0209,-0.0211,-0.0208,-0.0208,-0.0208,-0.0208,-0.0226,-0.0226,0,0,0,0,0,0,-0.0243,-0.0244,-0.0217,-0.0217,-0.0229,-0.0225,-0.0223,-0.0214,-0.0213,-0.0212,-0.0211,-0.0211,-0.021,-0.0209,-0.0209,-0.0238,-0.0208,-0.0208,-0.0208,-0.0225,-0.0226,-0.0226,0,0,0,0,0,0,-0.0244,-0.024,-0.0217,-0.023,-0.0228,-0.0224,-0.0214,-0.0214,-0.0216,-0.0211,-0.0211,-0.0214,-0.0209,-0.0209,-0.0218,-0.0237,-0.0208,-0.0208,-0.0225,-0.0226,-0.0226,-0.0279,0,0,0,0,0,0,-0.0245,-0.024,-0.0238,-0.023,-0.0227,-0.0221,-0.0214,-0.0214,-0.0215,-0.0215,-0.0214,-0.0213,-0.0209,-0.0218,-0.0218,-0.0236,-0.0208,-0.0224,-0.0225,-0.0226,-0.0277,-0.0282,-0.0286,0,0,0,0,0,-0.0246,-0.0243,-0.0237,-0.0234,-0.0222,-0.0221,-0.0221,-0.0218,-0.0216,-0.0219,-0.0222,-0.0213,-0.0223,-0.0218,-0.0218,-0.0237,-0.0224,-0.0225,-0.0226,-0.0275,-0.0281,-0.0286,0,0,0,0,0,0,-0.0263,-0.0242,-0.0236,-0.0228,-0.0225,-0.022,-0.0223,-0.0221,-0.0225,-0.0229,-0.0221,-0.0221,-0.0231,-0.0225,-0.022,-0.0243,-0.0221,-0.0222,-0.0259,-0.0264,-0.0268,-0.0283,-0.0208,0,0,0,0,0,-0.0264,-0.0255,-0.0241,-0.0239,-0.0234,-0.0229,-0.0229,-0.0231,-0.0231,-0.0232,-0.0233,-0.0234,-0.0235,-0.0243,-0.0239,-0.0257,-0.0245,-0.0267,-0.0272,-0.0276,-0.0286,-0.0291,-0.0298,-0.023,-0.023,-0.023,0,0,-0.0275,-0.0259,-0.0258,-0.0242,-0.0238,-0.0239,-0.0229,-0.0234,-0.0247,-0.0232,-0.0251,-0.0246,-0.024,-0.0258,-0.0263,-0.0258,-0.0285,-0.0277,-0.0281,-0.0289,-0.0293,-0.03,-0.0306,-0.0231,-0.023,-0.023,0,0,-0.0284,-0.0272,-0.0264,-0.0261,-0.0254,-0.0255,-0.0256,-0.0255,-0.0264,-0.0284,-0.0272,-0.0282,-0.029,-0.0293,-0.0294,-0.032,-0.0301,-0.0316,-0.0362,-0.0367,-0.0373,-0.0378,-0.0355,-0.0358,-0.0327,-0.0328,-0.0328,0,-0.0293,-0.0279,-0.0266,-0.0258,-0.0264,-0.0261,-0.0267,-0.0276,-0.0285,-0.0303,-0.0298,-0.0317,-0.031,-0.0332,-0.0344,-0.0333,-0.0323,-0.0344,-0.0374,-0.0379,-0.0383,-0.0359,-0.0362,-0.033,-0.033,-0.033,-0.0329,0,-0.0297,-0.0287,-0.0285,-0.0272,-0.0283,-0.0289,-0.0299,-0.0319,-0.0336,-0.0347,-0.0377,-0.0374,-0.038,-0.0386,-0.0377,-0.0405,-0.0382,-0.0372,-0.0364,-0.0393,-0.0366,-0.0367,-0.0334,-0.0333,-0.0332,-0.0332,0,0,-0.0302,-0.0287,-0.0285,-0.0284,-0.0293,-0.03,-0.0336,-0.0364,-0.0386,-0.0413,-0.0442,-0.0459,-0.045,-0.045,-0.0437,-0.0461,-0.0475,-0.0439,-0.0438,-0.0422,-0.047,-0.0398,-0.0392,-0.0476,-0.0477,-0.0477,-0.0432,0,-0.0303,-0.0288,-0.0295,-0.0307,-0.0301,-0.0331,-0.0363,-0.0398,-0.0424,-0.0451,-0.0473,-0.047,-0.0473,-0.0461,-0.0494,-0.0466,-0.0484,-0.0487,-0.0438,-0.0437,-0.0375,-0.0394,-0.0481,-0.0433,-0.0434,-0.0434,-0.0434,0,-0.0298,-0.0287,-0.029,-0.0314,-0.0319,-0.0338,-0.0395,-0.0417,-0.0463,-0.0479,-0.0504,-0.0497,-0.051,-0.0506,-0.0512,-0.0512,-0.05,-0.0497,-0.0495,-0.0414,-0.0369,-0.04,-0.0436,-0.0436,-0.0436,-0.0436,-0.0436,0,-0.0291,-0.0289,-0.0293,-0.0298,-0.0325,-0.0353,-0.0375,-0.0426,-0.044,-0.0465,-0.0467,-0.0498,-0.0473,-0.0497,-0.0482,-0.0489,-0.0496,-0.0489,-0.0421,-0.0414,-0.0469,-0.0464,-0.0511,-0.0511,-0.0511,-0.0511,-0.0512,0,-0.0282,-0.0286,-0.0284,-0.0285,-0.0301,-0.0334,-0.036,-0.039,-0.042,-0.0416,-0.0449,-0.0438,-0.0473,-0.0477,-0.0486,-0.0448,-0.0485,-0.0431,-0.0405,-0.0488,-0.0487,-0.0469,-0.0464,-0.051,-0.051,-0.051,-0.0511,0,-0.0272,-0.0268,-0.0266,-0.0286,-0.0289,-0.0297,-0.0318,-0.0332,-0.0359,-0.0349,-0.0338,-0.0373,-0.0356,-0.04,-0.0412,-0.041,-0.0404,-0.0387,-0.0459,-0.0437,-0.0317,-0.0316,-0.0292,-0.0289,-0.0287,-0.0285,-0.0283,0,-0.0265,-0.0257,-0.0251,-0.0233,-0.0236,-0.0242,-0.0245,-0.0283,-0.0283,-0.0294,-0.028,-0.0275,-0.0288,-0.0246,-0.0312,-0.0321,-0.0328,-0.0316,-0.0344,-0.0321,-0.0299,-0.0301,-0.0303,-0.028,-0.0279,-0.0278,-0.0278,0,-0.0257,-0.0252,-0.0249,-0.0199,-0.0185,-0.0172,-0.0172,-0.0165,-0.0192,-0.0217,-0.0164,-0.0158,-0.0151,-0.0176,-0.019,-0.0209,-0.0322,-0.0292,-0.0297,-0.0323,-0.0306,-0.0286,-0.0291,-0.027,-0.0271,-0.0272,-0.0272,0,-0.0251,-0.024,-0.0217,-0.017,-0.0144,-0.0109,-0.0114,-0.009,-0.009,-0.0099,-0.0073,-0.0088,-0.0109,-0.0117,-0.0136,-0.0142,-0.0141,-0.0135,-0.0149,-0.0158,-0.0146,-0.0106,0.0012,0,0,0,0,0,-0.0238,-0.0219,-0.0184,-0.0134,-0.0104,-0.0095,-0.0074,-0.0084,-0.0101,-0.0027,-0.0044,-0.0022,-0.0018,-0.0049,-0.0032,-0.0128,-0.0181,-0.011,-0.0189,-0.0225,-0.0234,-0.0239,0,0,0,0,0,0,-0.023,-0.0211,-0.0185,-0.0112,-0.008,-0.0054,-0.0046,-0.005,-0.0011,-0.0015,-0.0011,-0.0006,-0.0022,-0.0022,-0.0029,-0.004,-0.0081,-0.0126,-0.0125,-0.022,-0.0228,-0.0236,-0.0243,0,0,0,0,0]},{"header":{"parameterUnit":"m.s-1","parameterCategory":2,"la1":30.2991,"la2":30.254,"lo1":-89.0895,"lo2":-89.0444,"dy":0.0017,"dx":0.0017,"nx":28,"ny":28,"refTime":"2024-11-24T09:00:00:Z","depth":"4","parameterNumber":3,"parameterNumberName":"V-component_of_CURRENTS"},"data":[0,0,0,0,0,0,0,0,0,0,0,0,0,0,0,0,0,0,0,0,0,0,0,0,0,0,0,0,0,0,0,0,0,0,0,0,0,0,0,0,0,0,0,0,0,0,0,0,0,0,0,0,0,0,0,0,0,0,0.0421,0.0421,0,0.0428,0.0428,0.0428,0.0441,0.0441,0.0441,0.0442,0.0445,0.0445,0.0444,0,0,0,0,0,0,0,0,0,0,0,0,0,0.0419,0.0419,0.0421,0.0421,0.0421,0.0428,0.0428,0.0428,0.0441,0.0441,0.0442,0.0442,0.0445,0.0445,0.0444,0,0,0,0,0,0,0,0,0,0,0,0,0,0.0421,0.0419,0.0421,0.0429,0.043,0.0428,0.0428,0.0428,0.0441,0.0441,0.0442,0.0442,0.0445,0.0445,0.0444,0.043,0,0,0.0443,0.0443,0,0,0,0,0,0,0,0,0.0421,0.0421,0.0428,0.0429,0.043,0.0435,0.0428,0.0429,0.044,0.0435,0.0442,0.0442,0.0442,0.0442,0.044,0.043,0.043,0.0443,0.0443,0.0443,0.0442,0,0,0,0,0,0,0,0.0421,0.0421,0.0422,0.0428,0.0429,0.0433,0.0434,0.0428,0.0434,0.0436,0.0437,0.044,0.0442,0.044,0.044,0.0431,0.0443,0.0443,0.0442,0.0442,0.0419,0.0419,0,0,0,0,0,0,0.0422,0.042,0.0422,0.0422,0.0428,0.0433,0.0434,0.0432,0.0434,0.0436,0.0439,0.044,0.0441,0.044,0.044,0.0429,0.0443,0.0442,0.0442,0.042,0.0419,0.0419,0,0,0,0,0,0,0.0422,0.0422,0.0422,0.0423,0.0424,0.0433,0.043,0.0432,0.0435,0.0437,0.0438,0.0443,0.0441,0.0441,0.0438,0.0429,0.0442,0.0442,0.042,0.042,0.0419,0.0403,0,0,0,0,0,0,0.0422,0.0421,0.042,0.0423,0.0424,0.0416,0.043,0.0431,0.0437,0.0438,0.044,0.0441,0.0441,0.0439,0.0438,0.0429,0.0441,0.0421,0.042,0.0419,0.0404,0.0402,0.04,0,0,0,0,0,0.0421,0.0415,0.042,0.042,0.0421,0.0416,0.0416,0.0424,0.0436,0.0431,0.0438,0.0441,0.0434,0.0438,0.0437,0.0427,0.0421,0.042,0.0419,0.0404,0.0402,0.04,0,0,0,0,0,0,0.0411,0.0416,0.0422,0.0416,0.0416,0.0419,0.0415,0.0425,0.0426,0.0429,0.0437,0.0437,0.0429,0.0431,0.0436,0.0419,0.0427,0.0426,0.0417,0.0414,0.0412,0.0401,0.0441,0,0,0,0,0,0.0409,0.0405,0.041,0.0404,0.0404,0.0411,0.0412,0.0416,0.0419,0.0421,0.0428,0.043,0.0422,0.0423,0.0416,0.0409,0.0408,0.0402,0.04,0.0399,0.0388,0.0388,0.0385,0.0416,0.0416,0.0416,0,0,0.0404,0.0405,0.0404,0.0402,0.0402,0.0392,0.0412,0.0408,0.0401,0.042,0.0416,0.0422,0.0418,0.0408,0.0405,0.0411,0.0389,0.0398,0.0396,0.0387,0.0387,0.0384,0.0381,0.0416,0.0416,0.0416,0,0,0.0386,0.0391,0.0382,0.0378,0.0378,0.0379,0.0379,0.0386,0.039,0.0392,0.0397,0.0399,0.0401,0.0391,0.0386,0.037,0.0376,0.0373,0.0356,0.0356,0.0354,0.0351,0.0343,0.034,0.0375,0.0375,0.0375,0,0.0379,0.037,0.0377,0.0364,0.036,0.0372,0.0359,0.0357,0.0365,0.0365,0.0389,0.0384,0.0389,0.036,0.036,0.0364,0.0367,0.0366,0.0354,0.0351,0.0349,0.0342,0.0339,0.0374,0.0374,0.0374,0.0374,0,0.0352,0.0346,0.0338,0.0325,0.032,0.031,0.031,0.0309,0.0329,0.0333,0.0327,0.034,0.0336,0.0341,0.0349,0.0329,0.0336,0.035,0.036,0.0345,0.0338,0.0335,0.0373,0.0373,0.0373,0.0374,0,0,0.0336,0.0323,0.0322,0.0312,0.0302,0.0292,0.0277,0.0267,0.0251,0.0276,0.0261,0.0269,0.0285,0.028,0.029,0.0297,0.0292,0.0321,0.0322,0.0313,0.0289,0.0227,0.0218,0.0311,0.0311,0.031,0.0288,0,0.0315,0.029,0.0289,0.0261,0.0248,0.0249,0.0229,0.022,0.0224,0.0211,0.0227,0.0221,0.0256,0.0261,0.0269,0.0279,0.0285,0.0296,0.0304,0.0303,0.025,0.0212,0.0309,0.0286,0.0286,0.0285,0.0285,0,0.0294,0.0279,0.0262,0.0231,0.0224,0.0217,0.019,0.0171,0.015,0.0155,0.0154,0.0162,0.016,0.0205,0.0215,0.0224,0.0253,0.0273,0.0273,0.0216,0.0236,0.0304,0.028,0.028,0.0281,0.0281,0.0281,0,0.0288,0.0259,0.0249,0.0241,0.021,0.0211,0.0196,0.0171,0.0148,0.0127,0.0115,0.0108,0.0115,0.0142,0.018,0.0202,0.0195,0.0228,0.0197,0.0194,0.0267,0.0269,0.0241,0.0241,0.0241,0.0241,0.0241,0,0.0271,0.0256,0.0256,0.0248,0.0228,0.0211,0.0184,0.0166,0.0132,0.0086,0.0096,0.0057,0.0106,0.0105,0.0147,0.0144,0.0167,0.0173,0.0176,0.026,0.0262,0.0265,0.0268,0.024,0.024,0.024,0.0241,0,0.0265,0.0266,0.0249,0.0234,0.0233,0.0225,0.0191,0.0153,0.0133,0.0075,0.0071,0.0031,0.0011,0.0046,0.0076,0.0094,0.0106,0.011,0.0176,0.0186,0.0116,0.0118,0.0058,0.0055,0.0053,0.0051,0.005,0,0.0255,0.0251,0.0251,0.0256,0.0261,0.0244,0.0215,0.0172,0.0115,0.0042,-0.0004,-0.0029,-0.0052,-0.0052,-0.0029,0.0012,0.0038,0.0046,0.0096,0.0084,0.0093,0.0099,0.0105,0.0046,0.0046,0.0045,0.0045,0,0.0224,0.0242,0.0237,0.027,0.0264,0.0211,0.0166,0.0125,0.0044,0.0024,-0.0049,-0.0061,-0.0102,-0.0093,-0.0064,-0.0029,0.0033,0.0024,0.003,0.0077,0.007,0.0082,0.009,0.0037,0.0038,0.0039,0.0039,0,0.0205,0.0212,0.0242,0.0269,0.0277,0.0218,0.016,0.0087,0.0034,-0.0047,-0.0084,-0.0103,-0.0118,-0.0121,-0.0108,-0.0081,-0.0061,-0.002,-0.0011,-0.0003,-0.0016,-0.0033,-0.0116,0,0,0,0,0,0.0188,0.0211,0.0232,0.0247,0.0264,0.0275,0.0152,0.0074,-0.0013,-0.0054,-0.0059,-0.0095,-0.0102,-0.0129,-0.0108,-0.0157,-0.0068,-0.0137,-0.0017,-0.0004,0.0004,-0.0007,0,0,0,0,0,0,0.0175,0.0201,0.0232,0.0264,0.0298,0.0263,0.0208,0.0105,0.0059,-0.0004,-0.0009,-0.004,-0.0051,-0.005,-0.0067,-0.0076,0.0003,-0.0149,-0.0149,-0.0009,-0.0001,0.0006,-0.0003,0,0,0,0,0]}]]